Location: Bullfrog
(37.5121°N, 110.7330°W)
Time: 15:49:52
(UTC-06:00)

N. Korean satellite - Pass Details

Date: 03 October 2021
Orbit: 450 x 495 km, 97.3° (Epoch: 23 October)

Event Time Altitude Azimuth Distance (km) Brightness Sun altitude
Rises 06:20:45 0° 17° (NNE) 2,556 10.5 -12.7°
Reaches altitude 10° 06:22:51 10° 22° (NNE) 1,677 9.6 -12.3°
Maximum altitude 06:26:23 51° 99° (E) 621 7.5 -11.6°
Drops below altitude 10° 06:29:55 10° 177° (S) 1,680 9.3 -10.9°
Sets 06:32:01 0° 182° (S) 2,560 10.2 -10.4°
